[[{"header":{"parameterUnit":"m.s-1","parameterCategory":1,"la1":30.2991,"la2":30.254,"lo1":-89.0895,"lo2":-89.0444,"dy":0.0017,"dx":0.0017,"nx":28,"ny":28,"refTime":"2024-07-21T21:00:00:Z","depth":0,"parameterNumber":2,"parameterNumberName":"U-component_of_WINDS"},"data":[0,0,0,0,0,0,0,0,0,0,0,0,0,0,0,0,0,0,0,0,0,0,0,0,0,0,0,0,0,0,0,0,0,0,0,0,0,0,0,0,0,0,0,0,0,0,0,0,0,0,0,0,0,0,0,0,0,0,1.475,1.475,0,1.4794,1.4794,1.4795,1.4769,1.4768,1.4767,1.4766,1.4811,1.4813,1.4815,0,0,0,0,0,0,0,0,0,0,0,0,0,1.4642,1.4644,1.475,1.475,1.4751,1.4794,1.4794,1.4795,1.477,1.4768,1.4767,1.4765,1.481,1.4813,1.4816,0,0,0,0,0,0,0,0,0,0,0,0,0,1.4687,1.4644,1.475,1.4743,1.4743,1.4794,1.4794,1.4795,1.477,1.4768,1.4766,1.4765,1.4809,1.4812,1.4816,1.4875,0,0,1.4827,1.4828,0,0,0,0,0,0,0,0,1.4685,1.4691,1.4744,1.4744,1.4744,1.4774,1.4773,1.4822,1.477,1.476,1.4766,1.4764,1.48,1.4804,1.4817,1.4877,1.4879,1.4827,1.4829,1.4831,1.4832,0,0,0,0,0,0,0,1.4682,1.4689,1.4767,1.4745,1.4745,1.4738,1.4742,1.4782,1.479,1.4761,1.4759,1.4764,1.48,1.4813,1.4817,1.488,1.4827,1.483,1.4832,1.4834,1.4988,1.499,0,0,0,0,0,0,1.4679,1.4687,1.4766,1.4768,1.4709,1.4741,1.4746,1.4766,1.4789,1.4791,1.4766,1.4763,1.4808,1.4813,1.4819,1.4888,1.4831,1.4834,1.4836,1.4986,1.4988,1.4991,0,0,0,0,0,0,1.4677,1.4686,1.4764,1.4727,1.4737,1.4745,1.4768,1.4768,1.4782,1.4793,1.4795,1.4778,1.4807,1.4814,1.4861,1.4889,1.4836,1.4839,1.4984,1.4987,1.499,1.5028,0,0,0,0,0,0,1.4674,1.4686,1.4709,1.4728,1.4739,1.4806,1.477,1.477,1.4788,1.4784,1.4805,1.4807,1.4806,1.4855,1.4864,1.4893,1.4841,1.4981,1.4985,1.4989,1.5024,1.5031,1.5038,0,0,0,0,0,1.467,1.4718,1.471,1.472,1.4768,1.4807,1.4813,1.4811,1.479,1.4813,1.482,1.4806,1.4885,1.4861,1.487,1.4901,1.4979,1.4984,1.4988,1.5021,1.503,1.5038,0,0,0,0,0,0,1.4703,1.4721,1.4712,1.4768,1.4786,1.4803,1.4832,1.4822,1.4846,1.4842,1.4838,1.4843,1.4891,1.4901,1.4873,1.4957,1.4929,1.4935,1.495,1.4959,1.4966,1.4963,1.4844,0,0,0,0,0,1.4716,1.4748,1.4761,1.4809,1.4819,1.4824,1.4841,1.4838,1.4856,1.4864,1.4875,1.4893,1.4922,1.4941,1.4968,1.5025,1.5028,1.505,1.5057,1.5063,1.5069,1.5098,1.5107,1.5005,1.5005,1.5005,0,0,1.4745,1.4759,1.4779,1.4816,1.483,1.4861,1.4831,1.4866,1.4889,1.4869,1.4914,1.4922,1.4942,1.4994,1.5017,1.5003,1.5098,1.5069,1.5073,1.5076,1.5103,1.5113,1.5122,1.5008,1.5008,1.5007,0,0,1.4813,1.4827,1.4868,1.4882,1.4903,1.4906,1.4915,1.4933,1.4938,1.4982,1.4968,1.4995,1.5045,1.5059,1.5073,1.5144,1.5132,1.5153,1.519,1.5219,1.5227,1.5234,1.5258,1.5267,1.5159,1.5159,1.5159,0,1.4846,1.4894,1.489,1.4926,1.4942,1.4925,1.4965,1.4979,1.5008,1.5019,1.5003,1.5063,1.5076,1.513,1.5147,1.5159,1.5169,1.5151,1.5226,1.5233,1.5239,1.5262,1.5272,1.5161,1.5161,1.5161,1.516,0,1.4932,1.4965,1.4995,1.5023,1.5042,1.5081,1.5081,1.5102,1.5096,1.51,1.5144,1.5158,1.5187,1.52,1.5195,1.5252,1.5243,1.5226,1.5197,1.5252,1.5273,1.5282,1.5165,1.5164,1.5163,1.5162,0,0,1.5024,1.5047,1.5059,1.507,1.5091,1.5116,1.5152,1.518,1.5197,1.5217,1.5246,1.5288,1.5272,1.5288,1.5284,1.5309,1.5362,1.5289,1.5289,1.5301,1.5425,1.5437,1.5447,1.5354,1.5356,1.5357,1.5423,0,1.5092,1.5156,1.5153,1.5212,1.5242,1.5225,1.5256,1.5272,1.5276,1.5301,1.5306,1.5335,1.5312,1.5321,1.5345,1.5351,1.5387,1.5346,1.5381,1.5382,1.5376,1.5459,1.5472,1.5533,1.5431,1.5433,1.5434,0,1.5182,1.5204,1.5266,1.5281,1.5293,1.5322,1.5346,1.537,1.5387,1.5388,1.5404,1.5396,1.5431,1.5401,1.5449,1.5421,1.5435,1.544,1.5442,1.5445,1.5411,1.5463,1.5553,1.5562,1.5447,1.5446,1.5445,0,1.5241,1.5286,1.5329,1.5339,1.5358,1.5378,1.5387,1.5401,1.5418,1.5439,1.5449,1.5474,1.5487,1.5506,1.5504,1.5482,1.5552,1.5522,1.5554,1.5554,1.557,1.5569,1.5662,1.5579,1.5579,1.5579,1.5579,0,1.5318,1.5356,1.5355,1.5382,1.5424,1.5419,1.546,1.5466,1.5479,1.5506,1.5493,1.5518,1.5514,1.5538,1.5537,1.5576,1.5583,1.5584,1.5583,1.5585,1.5585,1.5594,1.559,1.5581,1.5581,1.558,1.558,0,1.5392,1.5393,1.5438,1.5451,1.5455,1.5485,1.5496,1.552,1.5523,1.5556,1.5564,1.5567,1.5595,1.5595,1.5627,1.5626,1.5674,1.5668,1.5668,1.5667,1.5698,1.5695,1.5801,1.5814,1.5723,1.5724,1.5724,0,1.5441,1.547,1.5486,1.5502,1.5512,1.5539,1.5555,1.5551,1.5568,1.5588,1.5609,1.5636,1.5657,1.5703,1.5708,1.5732,1.5726,1.5762,1.573,1.573,1.5726,1.5724,1.5726,1.5768,1.5769,1.577,1.5771,0,1.5527,1.5526,1.555,1.5573,1.5593,1.5611,1.5628,1.5642,1.5639,1.5659,1.5687,1.5704,1.5736,1.5762,1.5785,1.5793,1.5781,1.578,1.5789,1.5791,1.5789,1.579,1.5685,1.5778,1.5777,1.5777,1.5776,1.5776,1.559,1.5614,1.5628,1.5655,1.5667,1.5682,1.5705,1.571,1.5733,1.5759,1.5755,1.5786,1.58,1.5829,1.5839,1.5863,1.585,1.5863,1.5866,1.5869,1.5872,1.5785,1.5867,1.5867,1.5866,1.5866,1.5866,0,1.5675,1.5683,1.5707,1.5731,1.5751,1.5738,1.5755,1.5773,1.5801,1.5815,1.5835,1.5867,1.5892,1.5898,1.5922,1.5939,1.5934,1.5946,1.5944,1.5946,1.5882,1.5872,1.5949,1.5949,1.5949,1.5949,1.5949,1.5949,1.5722,1.5762,1.5761,1.5807,1.5814,1.5845,1.5855,1.5869,1.588,1.5916,1.5936,1.594,1.5951,1.5975,1.5996,1.5997,1.6006,1.602,1.6019,1.5959,1.5951,1.5943,1.5933,1.6022,1.6022,1.6081,1.6081,1.6082]},{"header":{"parameterUnit":"m.s-1","parameterCategory":1,"la1":30.2991,"la2":30.254,"lo1":-89.0895,"lo2":-89.0444,"dy":0.0017,"dx":0.0017,"nx":28,"ny":28,"refTime":"2024-07-21T21:00:00:Z","depth":0,"parameterNumber":3,"parameterNumberName":"V-component_of_WINDS"},"data":[0,0,0,0,0,0,0,0,0,0,0,0,0,0,0,0,0,0,0,0,0,0,0,0,0,0,0,0,0,0,0,0,0,0,0,0,0,0,0,0,0,0,0,0,0,0,0,0,0,0,0,0,0,0,0,0,0,0,1.4119,1.4118,0,1.4055,1.4054,1.4053,1.3987,1.3986,1.3985,1.3984,1.3919,1.3918,1.3917,0,0,0,0,0,0,0,0,0,0,0,0,0,1.4182,1.4181,1.4119,1.4118,1.4117,1.4055,1.4054,1.4053,1.3987,1.3986,1.3984,1.3983,1.3919,1.3918,1.3917,0,0,0,0,0,0,0,0,0,0,0,0,0,1.414,1.4181,1.4119,1.4076,1.4072,1.4055,1.4054,1.4053,1.3987,1.3986,1.3984,1.3983,1.3919,1.3918,1.3917,1.3936,0,0,1.3913,1.3912,0,0,0,0,0,0,0,0,1.4143,1.4138,1.4083,1.4079,1.4074,1.4027,1.4052,1.4014,1.3987,1.4019,1.3984,1.3982,1.3956,1.3951,1.3942,1.3933,1.393,1.3912,1.3912,1.3911,1.3911,0,0,0,0,0,0,0,1.4146,1.414,1.4093,1.4083,1.4077,1.406,1.4053,1.4045,1.3996,1.4016,1.4011,1.4005,1.3953,1.3944,1.394,1.3929,1.3912,1.3911,1.391,1.391,1.393,1.3931,0,0,0,0,0,0,1.4155,1.4143,1.4095,1.4091,1.4106,1.406,1.4052,1.4044,1.3996,1.3987,1.4006,1.4002,1.3947,1.3942,1.3938,1.3955,1.3911,1.391,1.3909,1.3929,1.393,1.3932,0,0,0,0,0,0,1.4157,1.4151,1.4098,1.4116,1.4108,1.4061,1.4052,1.4043,1.4034,1.3988,1.3979,1.4006,1.3946,1.394,1.3936,1.3952,1.3909,1.3908,1.3927,1.3929,1.3931,1.3993,0,0,0,0,0,0,1.4159,1.4152,1.416,1.4117,1.4107,1.4098,1.4053,1.4043,1.4032,1.4026,1.3985,1.3977,1.3944,1.3939,1.3935,1.395,1.3907,1.3926,1.3928,1.3931,1.3989,1.3997,1.4003,0,0,0,0,0,1.4161,1.418,1.416,1.4155,1.4115,1.4099,1.4094,1.4055,1.4033,1.404,1.401,1.3979,1.3952,1.3939,1.3934,1.3949,1.3924,1.3927,1.393,1.3986,1.3995,1.4003,0,0,0,0,0,0,1.4227,1.4174,1.4151,1.4157,1.4133,1.4088,1.4095,1.4066,1.4048,1.4043,1.3996,1.3988,1.3989,1.3969,1.3956,1.3964,1.3933,1.3936,1.3977,1.3986,1.3992,1.3997,1.3906,0,0,0,0,0,1.4242,1.4234,1.4188,1.4197,1.4186,1.4143,1.4135,1.4107,1.408,1.407,1.404,1.4015,1.4,1.3992,1.3977,1.3986,1.3975,1.3994,1.4001,1.4007,1.4009,1.401,1.4017,1.3942,1.3942,1.3942,0,0,1.4273,1.4243,1.4241,1.4209,1.4187,1.4179,1.4135,1.4128,1.4121,1.4069,1.4063,1.404,1.401,1.4012,1.4012,1.3995,1.4027,1.401,1.4016,1.4014,1.4014,1.4021,1.4027,1.3944,1.3943,1.3943,0,0,1.4325,1.4302,1.4306,1.4285,1.4252,1.4223,1.4224,1.4183,1.4166,1.416,1.4119,1.411,1.4088,1.4066,1.4053,1.4095,1.4065,1.4092,1.4128,1.413,1.4135,1.414,1.4154,1.4159,1.4094,1.4094,1.4094,0,1.4367,1.4353,1.4312,1.4307,1.4294,1.4245,1.4248,1.423,1.4194,1.4186,1.4168,1.4136,1.4113,1.4108,1.4119,1.411,1.4108,1.4096,1.4138,1.4143,1.4147,1.4159,1.4164,1.4098,1.4097,1.4097,1.4097,0,1.4406,1.4397,1.4404,1.437,1.4358,1.4357,1.4315,1.4307,1.4281,1.4253,1.4247,1.4216,1.4192,1.419,1.4164,1.4181,1.4172,1.4147,1.4115,1.4158,1.4168,1.4173,1.4102,1.4101,1.41,1.4099,0,0,1.4496,1.4439,1.4442,1.4425,1.4385,1.4377,1.4374,1.4351,1.4344,1.4321,1.4316,1.4297,1.4273,1.4258,1.4229,1.4231,1.4264,1.4205,1.4203,1.4215,1.4279,1.4297,1.4303,1.4244,1.4245,1.4245,1.4281,0,1.454,1.4531,1.4493,1.4495,1.4485,1.4439,1.4436,1.441,1.4385,1.4372,1.4344,1.433,1.43,1.429,1.429,1.426,1.4276,1.4257,1.4237,1.4237,1.4245,1.4308,1.4328,1.4363,1.4285,1.4285,1.4286,0,1.4589,1.4568,1.4569,1.4528,1.4522,1.452,1.4495,1.4484,1.4454,1.4435,1.4417,1.4385,1.4377,1.4349,1.4337,1.4325,1.4315,1.4299,1.4299,1.4295,1.4263,1.4304,1.4373,1.4378,1.4292,1.4292,1.4291,0,1.4652,1.4625,1.4621,1.4608,1.4561,1.456,1.454,1.4509,1.4497,1.4475,1.4466,1.4444,1.4431,1.4414,1.4376,1.4359,1.4368,1.4337,1.4351,1.4352,1.4354,1.4354,1.4421,1.4351,1.4351,1.435,1.435,0,1.4703,1.4705,1.4648,1.4646,1.4646,1.4603,1.4604,1.458,1.4552,1.4544,1.4503,1.4496,1.4447,1.4433,1.4404,1.4397,1.4393,1.4376,1.4368,1.4379,1.4381,1.437,1.4366,1.4352,1.4352,1.4351,1.4351,0,1.4773,1.4736,1.4728,1.4684,1.4673,1.4675,1.4636,1.4632,1.4603,1.4593,1.4588,1.4543,1.4526,1.4486,1.4458,1.4438,1.4438,1.4425,1.4448,1.4443,1.4459,1.4457,1.452,1.4525,1.4454,1.4454,1.4455,0,1.4807,1.4807,1.4763,1.4754,1.4736,1.4723,1.471,1.4667,1.4655,1.462,1.462,1.4599,1.4579,1.4553,1.4517,1.4495,1.4479,1.4503,1.4476,1.4486,1.4477,1.4477,1.4476,1.4509,1.451,1.451,1.4511,0,1.4871,1.4852,1.4835,1.4812,1.4798,1.4777,1.4754,1.4749,1.4701,1.4689,1.467,1.4656,1.4626,1.4605,1.4577,1.4556,1.4525,1.452,1.4522,1.4532,1.4545,1.4536,1.4463,1.4518,1.4518,1.4517,1.4517,1.4516,1.4922,1.492,1.4887,1.487,1.4848,1.4827,1.482,1.4791,1.4775,1.4747,1.4723,1.4706,1.4675,1.4634,1.4615,1.46,1.4585,1.4588,1.4588,1.4589,1.4593,1.4549,1.4595,1.4595,1.4595,1.4594,1.4594,0,1.4982,1.4959,1.4943,1.4912,1.4898,1.4871,1.4844,1.4833,1.4819,1.4792,1.4774,1.4751,1.4731,1.4694,1.4669,1.4665,1.465,1.466,1.4658,1.4654,1.4609,1.4609,1.4672,1.4672,1.4672,1.4672,1.4672,1.4672,1.5011,1.5005,1.4982,1.4964,1.494,1.4923,1.491,1.489,1.4869,1.4845,1.4828,1.4804,1.4773,1.4746,1.4725,1.4714,1.4707,1.4721,1.4706,1.4664,1.4657,1.465,1.465,1.472,1.472,1.4751,1.4751,1.4751]}]]